Regional Weather Roundup
Issued by NWS

Home | Current Version | Previous Version | Graphics & Text | Print | Product List | Glossary On
Versions: 1 2 3 4 5 6 7 8 9 10 11 12 13 14 15 16 17 18 19 20 21 22 23 24 25 26 27 28 29 30 31 32 33 34 35 36 37 38 39 40 41 42 43 44 45 46 47 48 49 50
000
ASUS45 KBOU 111910
RWRCO

WEATHER ROUNDUP FOR COLORADO
NATIONAL WEATHER SERVICE DENVER/BOULDER CO
100 PM MDT FRI JUL 11 2014

NOTE: "FAIR" INDICATES FEW OR NO CLOUDS BELOW 12000 FEET WITH NO
SIGNIFICANT WEATHER AND/OR OBSTRUCTIONS TO VISIBILITY.

COZ001>005-013-030-031-112000-
...NORTHWEST COLORADO...

CITY           SKY/WX    TMP DP  RH WIND       PRES   REMARKS
CRAIG          MOSUNNY   78  53  41 VRB5      30.20F
HAYDEN         MOSUNNY   77  52  41 E6        30.24F
MEEKER         MOSUNNY   79  53  40 W5        30.21F
MOUNT WERNER   NOT AVBL
STEAMBOAT SPGS MOSUNNY   77  50  39 N6        30.26F
WALDEN         CLOUDY    73  48  40 W6        30.35F
$$

COZ006>008-011-112000-
...WEST CENTRAL VALLEYS...

CITY           SKY/WX    TMP DP  RH WIND       PRES   REMARKS
GRAND JUNCTION SUNNY     87  53  31 NW13      30.09F
MONTROSE       MOSUNNY   87  51  28 NE6       30.18F
EAGLE          MOSUNNY   79  52  38 W3        30.25F
RIFLE          MOSUNNY   85  53  33 NW7       30.14F
DELTA          MOSUNNY   92  50  23 S7        30.13F
NUCLA          MOSUNNY   88  43  20 SW12G21   30.22F
$$

COZ017>023-064>068-112000-
...SOUTHWEST COLORADO...

CITY           SKY/WX    TMP DP  RH WIND       PRES   REMARKS
DURANGO        MOSUNNY   82  47  29 MISG      30.26F
CORTEZ         SUNNY     87  49  26 S9        30.20F
PAGOSA SPRINGS MOSUNNY   79  42  26 S6G17     30.33F
TELLURIDE      PTSUNNY   70  46  43 W6        30.44S
WOLF CREEK PAS NOT AVBL
$$

COZ009-010-012-014-032>034-037-058>063-112000-
...CENTRAL COLORADO...

CITY           SKY/WX    TMP DP  RH WIND       PRES   REMARKS
ASPEN          MOSUNNY   77  51  40 VRB5      30.31S
BUENA VISTA    PTSUNNY   81  37  21 W8        30.30F
COPPER MTN     TSTM      61  43  51 S7G20     30.67S
BERTHOUD PASS  CLOUDY    54  37  54 NW7       30.72S THUNDER
COTTONWOOD PAS PTSUNNY   72  41  33 W12       30.48F THUNDER
GUNNISON       PTSUNNY   79  46  31 N13G18    30.34F
KREMMLING      MOSUNNY   81  43  26 SW5       30.30F
LEADVILLE      TSTM      58  45  62 S13G21    30.50R
MONARCH PASS   PTSUNNY   57  41  54 SW15      30.77S
SALIDA         PTSUNNY   81  44  26 CALM      30.34F
SUNLIGHT       CLOUDY    59  55  88 CALM      30.59S
WILKERSON PASS PTSUNNY   72  36  26 W3        30.63F
$$

COZ069>075-112000-
...SAN LUIS VALLEY/SANGRE DE CRISTO MOUNTAINS...

CITY           SKY/WX    TMP DP  RH WIND       PRES   REMARKS
ALAMOSA        MOSUNNY   82  44  26 VRB6      30.28F
LA VETA PASS   PTSUNNY   72  45  37 E8        30.52F
SAGUACHE       PTSUNNY   77  45  31 NW20G30   30.34R THUNDER
$$

COZ035-036-038>040-112000-
...NORTHERN COLORADO FRONT RANGE...

CITY           SKY/WX    TMP DP  RH WIND       PRES   REMARKS
DENVER INTL AP MOSUNNY   89  53  29 NE8       30.13F
DMNS CITY PARK   N/A     90  51  26 E6        30.12F
AURORA         MOSUNNY   86  53  32 E10       30.15F
FRONT RANGE AP MOSUNNY   88  54  31 CALM      30.15F
ERIE MUNI ARPT MOSUNNY   89  51  27 NE6       30.11F
BOULDER MUN AP MOSUNNY   86  55  35 NE6       30.13F
CENTENNIAL     PTSUNNY   88  48  25 N8        30.16F
BROOMFIELD     PTSUNNY   86  54  32 E7        30.17S
FORT COLLINS   MOSUNNY   88  57  35 E6        30.10F
LONGMONT       MOSUNNY   91  54  28 E3        30.12F
$$

COZ041-046-047-076>085-087-088-112000-
...PIKES PEAK/PALMER DIVIDE AND SOUTHERN FOOTHILLS...

CITY           SKY/WX    TMP DP  RH WIND       PRES   REMARKS
COLO. SPRINGS  MOSUNNY   90  46  21 NE9       30.17F
A. F. ACADEMY  MOSUNNY   88  46  23 VRB5G16   30.19F
ELLICOTT       NOT AVBL
FALCON         MOSUNNY   87  44  22 E5        30.25F THUNDER
FORT CARSON    MOSUNNY   91  47  22 VRB6      30.14F
LIMON          SUNNY     88  56  33 NE16      30.13F
MONUMENT HILL  MOSUNNY   82  45  26 SE10      30.24F
TRINIDAD       SUNNY     90  46  21 VRB3      30.14F
$$

COZ042>045-048>051-090-091-112000-
...NORTHEAST COLORADO...

CITY           SKY/WX    TMP DP  RH WIND       PRES   REMARKS
GREELEY ARPT   NOT AVBL
AKRON          SUNNY     87  57  35 N10       30.09F
BURLINGTON     SUNNY     90  58  33 SW10      30.05F
WRAY             N/A     92  56  30 NE6       30.03S
STERLING       SUNNY     91  64  40 NE7       30.04S
HOLYOKE        MOSUNNY   88  63  42 NE7       30.04F
FORT MORGAN    SUNNY     91  53  27 N8        30.09F
$$

COZ086-089-092>099-112000-
...SOUTHEAST COLORADO...

CITY           SKY/WX    TMP DP  RH WIND       PRES   REMARKS
PUEBLO         SUNNY     95  50  21 E14       30.03F
LA JUNTA       SUNNY     94  55  26 VRB7      30.02F
LAMAR          SUNNY    100  51  19 SW9       29.95F
SPRINGFIELD      N/A     94  51  23 S25G35    30.07S
$$



USA.gov is the U.S. government's official web portal to all federal, state and local government web resources and services.